Lid_Strength_Index
3 3 3 4 4 4 3 3 4 3 3 2 2 2 2 2 3 4 7 4 4 -1 0 5 5 6 6 8 9 10 11 13 13 13 12 9 10 8 7 8 8 7 7 6 2
3 3 3 3 3 3 4 4 3 3 3 3 2 2 2 2 4 7 2 0 -0 0 4 6 7 7 8 9 9 10 12 13 11 11 11 10 9 9 10 9 9 8 6 5 2
3 3 3 3 3 4 4 4 3 3 3 3 3 2 2 3 7 7 0 0 -0 1 4 5 7 8 9 9 9 10 11 11 10 10 10 10 9 9 10 10 9 8 7 6 4
3 3 3 3 3 3 3 3 3 3 3 3 2 2 2 4 10 5 -0 -0 -0 2 5 6 6 8 9 10 9 11 10 10 9 8 9 10 9 9 9 8 7 7 7 7 6
3 3 3 3 3 3 3 3 3 3 3 3 2 1 3 7 6 2 -1 -0 1 3 5 6 7 8 9 9 9 10 10 8 8 8 8 8 10 10 9 7 6 6 7 7 6
3 3 3 3 3 3 3 3 3 3 3 3 1 1 5 8 3 2 2 2 3 4 5 5 6 6 8 8 9 8 8 8 8 8 8 10 9 10 9 7 7 7 7 7 7
3 3 3 4 4 3 3 3 3 3 3 2 1 2 5 6 2 1 1 3 3 3 5 4 4 6 6 7 7 7 9 8 8 8 8 9 10 10 7 7 7 7 6 6 6
3 3 3 4 4 3 3 3 3 3 2 1 0 2 6 3 1 1 2 2 2 2 3 3 3 5 6 5 7 8 9 11 8 7 7 8 11 8 6 7 7 6 6 6 5
3 3 3 4 3 3 3 3 2 2 1 1 2 3 6 1 3 2 1 3 3 3 3 3 3 6 6 8 9 9 12 10 9 7 7 8 10 7 5 6 6 6 5 5 5
3 3 3 3 3 3 3 3 1 1 1 0 2 6 5 5 3 2 2 3 4 4 4 5 5 7 7 9 13 11 11 10 10 8 7 8 9 7 6 6 6 5 5 5 5
3 3 3 3 3 3 4 5 5 5 4 6 6 6 5 3 2 4 3 4 4 5 7 6 8 10 8 8 8 9 10 11 9 7 8 9 9 7 6 6 6 6 5 5 4
3 3 3 3 3 4 4 5 5 5 7 5 5 5 4 3 6 4 3 6 6 9 7 8 10 8 8 8 8 9 11 11 9 7 8 9 9 7 6 6 5 5 5 4 4
4 4 3 3 3 4 4 5 3 4 6 6 5 5 5 4 6 6 4 6 8 9 9 10 9 7 8 9 10 9 11 11 11 9 8 9 11 9 7 6 5 5 4 4 4
4 4 3 4 5 5 5 4 4 4 9 9 8 6 5 6 7 4 4 6 7 9 8 9 7 8 9 9 9 12 9 10 11 12 15 9 17 10 8 8 6 6 5 4 4
4 4 3 4 5 5 4 4 3 4 15 8 8 4 5 6 6 6 3 5 8 9 8 9 8 9 10 9 8 11 8 9 10 12 13 12 15 11 8 9 7 6 5 4 4
4 3 4 4 5 4 4 3 3 9 14 9 8 7 7 6 7 6 6 5 6 8 8 8 6 7 8 7 8 8 9 10 10 12 18 13 13 12 10 9 7 6 5 5 4
4 3 4 4 3 3 3 3 10 12 8 10 9 7 8 9 8 8 8 8 10 13 11 9 9 7 7 9 7 9 12 17 18 19 18 12 14 12 9 7 7 6 5 5 4
4 5 4 3 2 3 3 6 13 11 10 7 8 8 10 9 8 9 9 10 9 9 12 13 14 9 7 8 11 10 12 18 22 19 16 11 15 11 7 6 5 5 5 4 4
5 4 3 2 3 3 4 11 11 10 8 9 9 10 11 9 9 9 9 10 9 8 12 13 13 8 7 7 8 12 15 11 17 15 18 14 11 9 7 7 6 6 5 5 5
6 5 3 2 2 2 7 11 9 7 7 8 12 10 12 10 10 10 10 8 9 7 7 10 16 9 8 7 8 10 9 16 16 21 21 15 14 13 9 8 7 7 6 6 5
5 5 3 2 2 5 10 10 8 6 6 9 10 10 10 11 10 11 11 8 8 8 7 9 14 12 9 10 11 12 14 14 14 15 19 19 14 8 8 7 7 6 6 5 5
7 8 3 3 7 7 9 8 7 7 6 7 7 8 10 10 11 11 11 9 6 7 10 8 12 15 12 8 8 9 12 12 17 18 16 16 16 7 7 6 6 6 6 5 5
8 8 3 3 10 9 8 8 7 8 8 8 9 8 8 10 13 11 10 7 6 7 11 9 13 17 14 10 10 11 10 10 12 14 17 19 16 8 7 7 6 6 6 6 5
7 10 7 6 6 8 10 9 9 6 7 7 8 7 9 11 9 11 10 8 6 7 6 7 12 14 18 14 12 14 12 11 12 17 15 15 13 10 9 8 7 6 6 6 5
7 9 8 10 9 8 8 9 10 10 7 7 8 8 10 12 11 11 9 9 7 6 8 9 15 12 12 11 11 12 12 12 13 13 17 14 13 11 9 9 8 7 7 7 6
8 9 8 9 8 8 9 9 10 9 9 10 10 9 9 11 11 12 10 10 11 8 9 8 13 12 13 10 10 12 11 12 12 12 13 13 14 9 8 9 9 9 9 9 8
6 6 8 9 9 9 9 9 9 9 8 7 9 10 11 9 7 7 6 7 8 10 11 10 13 14 16 11 12 16 13 13 12 12 12 15 12 10 10 10 10 10 10 10 9